Location: Karcze
(52.0945°N, 22.4786°E)
Time: 06:40:20
(UTC+00:00)

Transit 2A Rocket - Pass Details

Date: 05 August 2021
Orbit: 586 x 917 km, 66.7° (Epoch: 24 September)

Event Time Altitude Azimuth Distance (km) Brightness Sun altitude
Rises 16:12:27 0° 305° (NW) 3,083 9.2 16.8°
Reaches altitude 10° 16:15:34 10° 327° (NNW) 2,233 8.1 16.3°
Maximum altitude 16:18:50 17° 7° (N) 1,883 7.1 15.8°
Drops below altitude 10° 16:22:15 10° 46° (NE) 2,376 7.2 15.3°
Sets 16:25:44 0° 66° (ENE) 3,377 7.8 14.7°
